AirNav   Phillips 66 Aviation Fuel
 
 745 users online  

4G5 Monroe County Airport
Woodsfield, Ohio, USA

GOING TO WOODSFIELD?


FAA INFORMATION EFFECTIVE 24 MAY 2018

Location

FAA Identifier: 4G5
Lat/Long: 39-46-44.5837N / 081-06-10.0084W
39-46.743062N / 081-06.166807W
39.7790510 / -81.1027801
(estimated)
Elevation: 1197 ft. / 364.8 m (surveyed)
Variation: 08W (2015)
From city: 1 mile N of WOODSFIELD, OH
Time zone: UTC -4 (UTC -5 during Standard Time)
Zip code: 43793

Airport Operations

Airport use: Open to the public
Activation date: 03/1969
Control tower: no
ARTCC: CLEVELAND CENTER
FSS: CLEVELAND FLIGHT SERVICE STATION
NOTAMs facility: CLE (NOTAM-D service available)
Attendance: IREG
Wind indicator: lighted
Segmented circle: no
Lights: ACTVT MIRL RY 07/25; AND REIL RY 25 - CTAF.
Beacon: white-green (lighted land airport)
Operates sunset to sunrise.

Airport Communications

CTAF/UNICOM: 122.8
WX AWOS-3 at MPG (18 nm E): 119.05 (304-845-2959)
  • APCH/DEP SERVICE PROVIDED BY CLEVELAND ARTCC ON FREQS 126.95/239.30 (BELMONT RCAG).

Nearby radio navigation aids

VOR radial/distance  VOR name  Freq  Var
AIRr230/19.4BELLAIRE VOR/DME117.1007W
JPUr035/23.9PARKERSBURG VOR/DME108.6003W
CTWr155/32.0NEWCOMERSTOWN VOR/DME111.8007W
ZZVr111/37.6ZANESVILLE VOR/DME111.4006W
HLGr227/37.9WHEELING VOR/DME112.2007W

 
NDB name  Hdg/Dist  Freq  Var  ID
CADIZ196/27.823907WCFX -.-. ..-. -..-

Airport Services

Fuel available: 100LL JET-A+
FOR FUEL CALL 740-213-3106.
Parking: tiedowns
Airframe service: NONE
Powerplant service: NONE
Bottled oxygen: NONE
Bulk oxygen: NONE

Runway Information

Runway 7/25

Dimensions: 3805 x 75 ft. / 1160 x 23 m
Surface: asphalt, in good condition
Weight bearing capacity: 
Single wheel: 18.0
Runway edge lights: medium intensity
RUNWAY 7  RUNWAY 25
Latitude: 39-46.615640N39-46.870463N
Longitude: 081-06.537868W081-05.795722W
Elevation: 1193.8 ft.1190.4 ft.
Gradient: 0.2%0.2%
Traffic pattern: leftleft
Runway heading: 074 magnetic, 066 true254 magnetic, 246 true
Displaced threshold: 173 ft.no
Markings: nonprecision, in good conditionnonprecision, in good condition
Runway end identifier lights: yes
Touchdown point: yes, no lightsyes, no lights
Obstructions: 48 ft. trees, 481 ft. from runway, 238 ft. right of centerline, 5:1 slope to clear
RWY 07 APCH RATIO 13:1 TO DSPLCD THLD.
18 ft. trees, 201 ft. from runway, 174 ft. left of centerline
0-18 FT TREES & BRUSH 80 FT TO 200 FT FM RY END, 162 FT TO 250 FT L OF CNTRLN.

Airport Ownership and Management from official FAA records

Ownership: Publicly-owned
Owner: COUNTY CMSN
101 N. MAIN ST.
WOODSFIELD, OH 43793
Phone 740-472-1341
Manager: DAVID DALRYMPLE
47073 STATE RTE 26
WOODSFIELD, OH 43793
Phone 740-472-1882
MANAGER CELL PHONE 740-213-3106

Airport Operational Statistics

Aircraft based on the field: 13
Single engine airplanes: 12
Ultralights: 1
    
Aircraft operations: avg 64/week *
45% local general aviation
19% military
18% transient general aviation
18% air taxi
* for 12-month period ending 21 July 2015

Instrument Procedures

NOTE: All procedures below are presented as PDF files. If you need a reader for these files, you should download the free Adobe Reader.

NOT FOR NAVIGATION. Please procure official charts for flight.
FAA instrument procedures published for use from 24 May 2018 at 0901Z to 21 June 2018 at 0900Z.

 
IAPs - Instrument Approach Procedures
RNAV (GPS) RWY 25   download (247KB)
VOR/DME RWY 25   download (171KB)
NOTE: Special Take-Off Minimums/Departure Procedures apply   download (164KB)

Other nearby airports with instrument procedures:

6G5 - Barnesville-Bradfield Airport (14 nm N)
2P7 - Alderman Airport (18 nm N)
KMPG - Marshall County Airport (18 nm E)
I10 - Noble County Airport (20 nm W)
KCDI - Cambridge Municipal Airport (25 nm NW)
 
Loc | Ops | Rwys | IFR | FBO | Links
Com | Nav | Svcs | Stats | Notes

AirNav Hotels Sweepstakes
 
Area around 4G5 (Monroe County Airport)
 
Road maps at: MapQuest Bing Google
 
Aerial photo
WARNING: Photo may not be current or correct
Aerial photo of 4G5 (Monroe County Airport)
Photo by John Carpenter
Photo taken 13-Nov-2010
looking west.

Do you have a better or more recent aerial photo of Monroe County Airport that you would like to share? If so, please send us your photo.

 
Sectional chart

 
Airport distance calculator
Flying to Monroe County Airport? Find the distance to fly.

From to 4G5

Sunrise and sunset
Times for 20-Jun-2018
 Local
(UTC-4)
 Zulu
(UTC)
Morning civil twilight05:2409:24
Sunrise05:5709:57
Sunset20:5500:55
Evening civil twilight21:2701:27

Current date and time
Zulu (UTC)  20-Jun-2018 11:41:19
Local (UTC-4)  20-Jun-2018 07:41:19
 
METAR
KCDI 
25nm NW 
201115Z AUTO 20003KT 1 3/4SM BR OVC002 22/22 A2990 RMK AO2 T02200221
KPKB 
30nm SW 
201053Z 19003KT 4SM BR FEW005 22/21 A2993 RMK AO2 SLP127 T02170206
KHLG 
31nm NE 
201053Z 00000KT 10SM OVC003 21/19 A2991 RMK AO2 SLP120 T02060189
KZZV 
38nm W 
201053Z AUTO 23004KT 1/4SM FG VV002 22/21 A2990 RMK AO2 SLP118 T02220211
KAFJ 
43nm NE 
201105Z AUTO 00000KT 10SM OVC004 21/20 A2993 RMK AO2
KPHD 
44nm N 
201107Z AUTO 00000KT 10SM SCT017 BKN037 21/19 A2990 RMK AO2 T02110189 $
TAF
KPKB 
30nm SW 
200954Z 2010/2106 00000KT 1 1/2SM BR SCT002 FM201200 23004KT 4SM BR SKC FM201300 23008KT P6SM BKN060 FM201800 23008G14KT 3SM TSRA OVC040CB FM202000 28004KT P6SM OVC060
KHLG 
31nm NE 
201020Z 2010/2106 11003KT P6SM BKN004 OVC015 FM201400 VRB03KT P6SM VCSH OVC015 FM201600 25004KT 6SM -SHRA VCTS OVC030CB FM202000 25005KT 6SM -SHRA VCTS OVC060CB FM210000 VRB03KT P6SM VCTS OVC050CB FM210300 VRB03KT P6SM BKN015
NOTAMs
Click for the latest NOTAMs
NOTAMs are issued by the DoD/FAA and will open in a separate window not controlled by AirNav.

 

 
 

FBO, Fuel Providers, and Aircraft Ground Support

  
 Business Name 
 
 Contact 
 
 Services / Description 
 
Fuel Prices
 
Comments
  
 Monroe County Airport
740-472-1882 Airport management, Aviation fuel, Aircraft parking (ramp or tiedown), Hangar leasing / sales, Passenger terminal and lounge, Rental cars, Public telephone, ...

More info about Monroe County Airport
Phillips 66
100LL Jet A
FS $5.00 $3.99 
 Updated 14-Jun-2018
 
   1 read write
FS=Full service
Update Fuel Prices
 

Would you like to see your business listed on this page?

 If your business provides an interesting product or service to pilots, flight crews, aircraft, or users of the Monroe County Airport, you should consider listing it here.  To start the listing process, click on the button below
 
Add a business
 

Other Pages about Monroe County Airport

Update a link
 
Copyright © AirNav, LLC. All rights reserved. Privacy Policy  Contact